Weather Roundup
Issued by NWS Corpus Christi, TX

Home | Current Version | Previous Version | Text Only | Print | Product List | Glossary On
Versions: 1 2 3 4 5 6 7 8 9 10 11 12 13 14 15 16 17 18 19 20 21 22 23 24 25 26 27 28 29 30 31 32 33 34 35 36 37 38 39 40 41 42 43 44 45 46 47 48 49 50
000
ASUS44 KCRP 251310
HRRCRP

SOUTH TEXAS REGIONAL WEATHER ROUNDUP
NATIONAL WEATHER SERVICE CORPUS CHRISTI TX
700 AM CST THU DEC 25 2014


TXZ229>244-251400-
...CORPUS CHRISTI AREA OBSERVATIONS...

CITY           SKY/WX    TMP DP  RH WIND       PRES   REMARKS
CORPUS CHRISTI MOCLDY    34  29  82 SW7       30.14R
NAS CORPUS CHR PTCLDY    40  36  86 SW5       30.14R
ROCKPORT       PTCLDY    40  37  89 SW5       30.14R
KINGSVILLE NAS PTCLDY    36  33  89 S7        30.15R
ALICE          FAIR      38  31  76 SW5       30.13R
FALFURRIAS     PTCLDY    34  29  80 CALM      30.14S
$$

...VICTORIA AREA OBSERVATIONS...

CITY           SKY/WX    TMP DP  RH WIND       PRES   REMARKS
VICTORIA       CLEAR     37  33  85 SW6       30.13R
BEEVILLE       FAIR      40  33  76 SW5       30.12R
PLEASANTON     CLEAR     28  27  96 CALM      30.11R
SAN ANTONIO    PTCLDY    32  27  81 CALM      30.08S
$$

...LAREDO AREA OBSERVATIONS...

CITY           SKY/WX    TMP DP  RH WIND       PRES   REMARKS
LAREDO         CLEAR     41  30  65 SE8       30.12
COTULLA        PTCLDY    35  26  69 SE7       30.10R
DEL RIO        CLEAR     36  24  62 E7        30.02R
MCALLEN        PTCLDY    39  35  86 SE6       30.15F
HEBBRONVILLE   CLEAR     38  28  69 S5        30.11S
$$

...OTHER TEXAS OBSERVATIONS...

CITY           SKY/WX    TMP DP  RH WIND       PRES   REMARKS
BROWNSVILLE    CLEAR     41  36  82 SW3       30.17R
HOUSTON        PTCLDY    34  33  96 CALM      30.13S
COL. STATION   PTCLDY    35  30  82 SE5       30.10R
AUSTIN         PTCLDY    31  27  85 S6        30.06S
WACO           PTCLDY    38  30  73 S8        30.03F
FORT WORTH     MOCLDY    39  28  64 S14       29.99R WCI  31
WICHITA FALLS  CLEAR     40  25  55 S21G29    29.85S WCI  30
LUBBOCK        MOCLDY    37  22  54 SW16G26   29.74R WCI  28
EL PASO        CLOUDY    36  11  35 S8        29.83S
$$

...MARINE OBSERVATIONS...

STATION/POSITION TIME  SKY/WX   TEMP    WIND        PRES    VSBY  WAVE   SWELL
                                AIR SEA DIR/SP/G                  HT/PER HT/PER
                 (UTC)          (F)     (DEG/KT/KT) (MB)    (MI)  (FT/S) (FT/S)
PORT ARANSAS     1300            51 59  230/  7/  8 1020.8R
BUOY 90 E PORT A 1300            60 71  160/  8/ 12 1021.3R         1/ 9
BUOY 45 SE BAFFI 1300            61 72  180/ 14/ 17 1020.6R         1/11
BUOY 200 E PT IS 1300            61 74   60/  6/  8 1021.9R         4/ 7   3/ 7
BUOY 15 E GALVES 1300            56 58  180/  4/  6 1020.8R         1/ 5
$$



USA.gov is the U.S. government's official web portal to all federal, state and local government web resources and services.